User: anonymous   Login
Location: Dompnac
(44.5644°N, 4.1026°E)
Time: 01:51:28
(UTC+00:00)
Language:

NOAA 19 - Orbit

View from above orbital plane
View from above orbital plane
View from above satellite
View from above satellite

Ground track
Ground track

The orbit data is extracted from the following two-line orbital elements,

1 33591U 09005A   21057.76127031  .00000033  00000-0  42902-4 0  9994
2 33591  99.1920  75.6771 0014912  83.7566 276.5302 14.12453479621293
Epoch (UTC): 26 February 2021 18:16:13
Eccentricity: 0.0014912
inclination: 99.1920°
perigee height: 840 km
apogee height: 862 km
right ascension of ascending node: 75.6771°
argument of perigee: 83.7566°
revolutions per day: 14.12453479
mean anomaly at epoch: 276.5302°
orbit number at epoch: 62129

The dashed part of the orbit path shows where the satellite is in the earth's shadow,  

DLR